Location: Binningen
(47.7924°N, 8.7261°E)
Time: 06:33:47
(UTC+00:00)

Landsat 7 - Pass Details

Date: 17 May 2021
Orbit: 701 x 703 km, 98.0° (Epoch: 15 June)

Event Time Altitude Azimuth Distance (km) Brightness Sun altitude
Exits shadow 19:44:55 - 152° (SSE) 2,463 6.1 -7.1°
Reaches altitude 10° 19:45:40 10° 151° (SSE) 2,167 5.8 -7.2°
Maximum altitude 19:50:20 61° 72° (ENE) 802 4.0 -7.8°
Drops below altitude 10° 19:55:03 10° 353° (N) 2,182 7.1 -8.4°
Sets 19:57:20 0° 350° (N) 3,105 8.1 -8.7°
